{"data":{"norad_id":67787,"epoch":"2026-09-19T22:53:53.328480Z","epoch_age_seconds":133594,"freshness":"FRESH","line1":"1 67787U 26030Z   26262.95408945 -.00000535  00000+0 -41235-4 0  9991","line2":"2 67787  51.9019  56.6776 0000736 123.9976 236.1057 14.79928281 34093","mean_motion":14.79928281,"eccentricity":7.36e-5,"inclination_deg":51.9019,"raan_deg":56.6776,"arg_perigee_deg":123.9976,"mean_anomaly_deg":236.1057,"bstar":-4.1235e-5,"rev_number":3409,"period_min":97.30201243448,"perigee_km":629.0347601263,"apogee_km":630.06629173012,"semimajor_km":7007.6875259282,"source":"CELESTRAK","updated_at":"2026-09-21T09:00:16.857049Z"}}